owner,sensor,date,latitude,longitude,sea_surface_height_above_sea_level,qcFlag 
COMPS,ioos:station:USF.COMPS:FHP:1,2017-05-01T00:00:00Z,28.1530,-82.8010,-9.976,1111122 
COMPS,ioos:station:USF.COMPS:FHP:1,2017-05-01T00:06:00Z,28.1530,-82.8010,-9.999,1111122 
COMPS,ioos:station:USF.COMPS:FHP:1,2017-05-01T06:24:00Z,28.1530,-82.8010,-9.991,1111122 
COMPS,ioos:station:USF.COMPS:FHP:1,2017-05-01T06:30:00Z,28.1530,-82.8010,-9.986,1111122 
COMPS,ioos:station:USF.COMPS:FHP:1,2017-05-01T06:36:00Z,28.1530,-82.8010,-9.97,1111122 
COMPS,ioos:station:USF.COMPS:FHP:1,2017-05-01T06:42:00Z,28.1530,-82.8010,-9.966,1111122 
COMPS,ioos:station:USF.COMPS:FHP:1,2017-05-01T06:48:00Z,28.1530,-82.8010,-9.956,1111122 
COMPS,ioos:station:USF.COMPS:FHP:1,2017-05-01T06:54:00Z,28.1530,-82.8010,-9.943,1111122 
COMPS,ioos:station:USF.COMPS:FHP:1,2017-05-01T07:00:00Z,28.1530,-82.8010,-9.936,1111122 
COMPS,ioos:station:USF.COMPS:FHP:1,2017-05-01T07:06:00Z,28.1530,-82.8010,-9.925,1111122 
COMPS,ioos:station:USF.COMPS:FHP:1,2017-05-01T07:12:00Z,28.1530,-82.8010,-9.903,1111122 
COMPS,ioos:station:USF.COMPS:FHP:1,2017-05-01T07:18:00Z,28.1530,-82.8010,-9.901,1111122 
COMPS,ioos:station:USF.COMPS:FHP:1,2017-05-01T07:24:00Z,28.1530,-82.8010,-9.894,1111122 
COMPS,ioos:station:USF.COMPS:FHP:1,2017-05-01T07:30:00Z,28.1530,-82.8010,-9.894,1111122 
COMPS,ioos:station:USF.COMPS:FHP:1,2017-05-01T07:36:00Z,28.1530,-82.8010,-9.889,1111122 
COMPS,ioos:station:USF.COMPS:FHP:1,2017-05-01T07:42:00Z,28.1530,-82.8010,-9.876,1111122 
COMPS,ioos:station:USF.COMPS:FHP:1,2017-05-01T07:48:00Z,28.1530,-82.8010,-9.861,1111122 
COMPS,ioos:station:USF.COMPS:FHP:1,2017-05-01T07:54:00Z,28.1530,-82.8010,-9.851,1111122 
COMPS,ioos:station:USF.COMPS:FHP:1,2017-05-01T08:00:00Z,28.1530,-82.8010,-9.841,1111122 
COMPS,ioos:station:USF.COMPS:FHP:1,2017-05-01T08:06:00Z,28.1530,-82.8010,-9.84,1111122 
COMPS,ioos:station:USF.COMPS:FHP:1,2017-05-01T08:12:00Z,28.1530,-82.8010,-9.841,1111122 
COMPS,ioos:station:USF.COMPS:FHP:1,2017-05-01T08:18:00Z,28.1530,-82.8010,-9.834,1111122 
COMPS,ioos:station:USF.COMPS:FHP:1,2017-05-01T08:24:00Z,28.1530,-82.8010,-9.821,1111122 
COMPS,ioos:station:USF.COMPS:FHP:1,2017-05-01T08:30:00Z,28.1530,-82.8010,-9.813,1111122 
COMPS,ioos:station:USF.COMPS:FHP:1,2017-05-01T08:36:00Z,28.1530,-82.8010,-9.804,1111122 
COMPS,ioos:station:USF.COMPS:FHP:1,2017-05-01T08:42:00Z,28.1530,-82.8010,-9.804,1111122 
COMPS,ioos:station:USF.COMPS:FHP:1,2017-05-01T08:48:00Z,28.1530,-82.8010,-9.806,1111122 
COMPS,ioos:station:USF.COMPS:FHP:1,2017-05-01T08:54:00Z,28.1530,-82.8010,-9.803,1111122 
COMPS,ioos:station:USF.COMPS:FHP:1,2017-05-01T09:00:00Z,28.1530,-82.8010,-9.797,1111122 
COMPS,ioos:station:USF.COMPS:FHP:1,2017-05-01T09:06:00Z,28.1530,-82.8010,-9.783,1111122 
COMPS,ioos:station:USF.COMPS:FHP:1,2017-05-01T09:12:00Z,28.1530,-82.8010,-9.776,1111122 
COMPS,ioos:station:USF.COMPS:FHP:1,2017-05-01T09:18:00Z,28.1530,-82.8010,-9.763,1111122 
COMPS,ioos:station:USF.COMPS:FHP:1,2017-05-01T09:24:00Z,28.1530,-82.8010,-9.75,1111122 
COMPS,ioos:station:USF.COMPS:FHP:1,2017-05-01T09:30:00Z,28.1530,-82.8010,-9.738,1111122 
COMPS,ioos:station:USF.COMPS:FHP:1,2017-05-01T09:36:00Z,28.1530,-82.8010,-9.727,1111122 
COMPS,ioos:station:USF.COMPS:FHP:1,2017-05-01T09:42:00Z,28.1530,-82.8010,-9.727,1111122 
COMPS,ioos:station:USF.COMPS:FHP:1,2017-05-01T09:48:00Z,28.1530,-82.8010,-9.73,1111122 
COMPS,ioos:station:USF.COMPS:FHP:1,2017-05-01T09:54:00Z,28.1530,-82.8010,-9.735,1111122 
COMPS,ioos:station:USF.COMPS:FHP:1,2017-05-01T10:00:00Z,28.1530,-82.8010,-9.733,1111122 
COMPS,ioos:station:USF.COMPS:FHP:1,2017-05-01T10:06:00Z,28.1530,-82.8010,-9.731,1111122 
COMPS,ioos:station:USF.COMPS:FHP:1,2017-05-01T10:12:00Z,28.1530,-82.8010,-9.729,1111122 
COMPS,ioos:station:USF.COMPS:FHP:1,2017-05-01T10:18:00Z,28.1530,-82.8010,-9.732,1111122 
COMPS,ioos:station:USF.COMPS:FHP:1,2017-05-01T10:24:00Z,28.1530,-82.8010,-9.737,1111122 
COMPS,ioos:station:USF.COMPS:FHP:1,2017-05-01T10:30:00Z,28.1530,-82.8010,-9.733,1111122 
COMPS,ioos:station:USF.COMPS:FHP:1,2017-05-01T10:36:00Z,28.1530,-82.8010,-9.742,1111122 
COMPS,ioos:station:USF.COMPS:FHP:1,2017-05-01T10:42:00Z,28.1530,-82.8010,-9.746,1111122 
COMPS,ioos:station:USF.COMPS:FHP:1,2017-05-01T10:48:00Z,28.1530,-82.8010,-9.744,1111122 
COMPS,ioos:station:USF.COMPS:FHP:1,2017-05-01T10:54:00Z,28.1530,-82.8010,-9.752,1111122 
COMPS,ioos:station:USF.COMPS:FHP:1,2017-05-01T11:00:00Z,28.1530,-82.8010,-9.747,1111122 
COMPS,ioos:station:USF.COMPS:FHP:1,2017-05-01T11:06:00Z,28.1530,-82.8010,-9.746,1111122 
COMPS,ioos:station:USF.COMPS:FHP:1,2017-05-01T11:12:00Z,28.1530,-82.8010,-9.745,1111122 
COMPS,ioos:station:USF.COMPS:FHP:1,2017-05-01T11:18:00Z,28.1530,-82.8010,-9.747,1111122 
COMPS,ioos:station:USF.COMPS:FHP:1,2017-05-01T11:24:00Z,28.1530,-82.8010,-9.741,1111122 
COMPS,ioos:station:USF.COMPS:FHP:1,2017-05-01T11:30:00Z,28.1530,-82.8010,-9.739,1111122 
COMPS,ioos:station:USF.COMPS:FHP:1,2017-05-01T11:36:00Z,28.1530,-82.8010,-9.746,1111122 
COMPS,ioos:station:USF.COMPS:FHP:1,2017-05-01T11:42:00Z,28.1530,-82.8010,-9.755,1111122 
COMPS,ioos:station:USF.COMPS:FHP:1,2017-05-01T11:48:00Z,28.1530,-82.8010,-9.759,1111122 
COMPS,ioos:station:USF.COMPS:FHP:1,2017-05-01T11:54:00Z,28.1530,-82.8010,-9.766,1111122 
COMPS,ioos:station:USF.COMPS:FHP:1,2017-05-01T12:00:00Z,28.1530,-82.8010,-9.759,1111122 
COMPS,ioos:station:USF.COMPS:FHP:1,2017-05-01T12:06:00Z,28.1530,-82.8010,-9.752,1111122 
COMPS,ioos:station:USF.COMPS:FHP:1,2017-05-01T12:12:00Z,28.1530,-82.8010,-9.756,1111122 
COMPS,ioos:station:USF.COMPS:FHP:1,2017-05-01T12:18:00Z,28.1530,-82.8010,-9.76,1111122 
COMPS,ioos:station:USF.COMPS:FHP:1,2017-05-01T12:24:00Z,28.1530,-82.8010,-9.777,1111122 
COMPS,ioos:station:USF.COMPS:FHP:1,2017-05-01T12:30:00Z,28.1530,-82.8010,-9.787,1111122 
COMPS,ioos:station:USF.COMPS:FHP:1,2017-05-01T12:36:00Z,28.1530,-82.8010,-9.785,1111122 
COMPS,ioos:station:USF.COMPS:FHP:1,2017-05-01T12:42:00Z,28.1530,-82.8010,-9.789,1111122 
COMPS,ioos:station:USF.COMPS:FHP:1,2017-05-01T12:48:00Z,28.1530,-82.8010,-9.791,1111122 
COMPS,ioos:station:USF.COMPS:FHP:1,2017-05-01T12:54:00Z,28.1530,-82.8010,-9.793,1111122 
COMPS,ioos:station:USF.COMPS:FHP:1,2017-05-01T13:00:00Z,28.1530,-82.8010,-9.797,1111122 
COMPS,ioos:station:USF.COMPS:FHP:1,2017-05-01T13:06:00Z,28.1530,-82.8010,-9.809,1111122 
COMPS,ioos:station:USF.COMPS:FHP:1,2017-05-01T13:12:00Z,28.1530,-82.8010,-9.813,1111122 
COMPS,ioos:station:USF.COMPS:FHP:1,2017-05-01T13:18:00Z,28.1530,-82.8010,-9.813,1111122 
COMPS,ioos:station:USF.COMPS:FHP:1,2017-05-01T13:24:00Z,28.1530,-82.8010,-9.816,1111122 
COMPS,ioos:station:USF.COMPS:FHP:1,2017-05-01T13:30:00Z,28.1530,-82.8010,-9.831,1111122 
COMPS,ioos:station:USF.COMPS:FHP:1,2017-05-01T13:36:00Z,28.1530,-82.8010,-9.851,1111122 
COMPS,ioos:station:USF.COMPS:FHP:1,2017-05-01T13:42:00Z,28.1530,-82.8010,-9.847,1111122 
COMPS,ioos:station:USF.COMPS:FHP:1,2017-05-01T13:48:00Z,28.1530,-82.8010,-9.827,1111122 
COMPS,ioos:station:USF.COMPS:FHP:1,2017-05-01T13:54:00Z,28.1530,-82.8010,-9.83,1111122 
COMPS,ioos:station:USF.COMPS:FHP:1,2017-05-01T14:00:00Z,28.1530,-82.8010,-9.834,1111122 
COMPS,ioos:station:USF.COMPS:FHP:1,2017-05-01T14:06:00Z,28.1530,-82.8010,-9.832,1111122 
COMPS,ioos:station:USF.COMPS:FHP:1,2017-05-01T14:12:00Z,28.1530,-82.8010,-9.832,1111122 
COMPS,ioos:station:USF.COMPS:FHP:1,2017-05-01T14:18:00Z,28.1530,-82.8010,-9.82,1111122 
COMPS,ioos:station:USF.COMPS:FHP:1,2017-05-01T14:24:00Z,28.1530,-82.8010,-9.816,1111122 
COMPS,ioos:station:USF.COMPS:FHP:1,2017-05-01T14:30:00Z,28.1530,-82.8010,-9.821,1111122 
COMPS,ioos:station:USF.COMPS:FHP:1,2017-05-01T14:36:00Z,28.1530,-82.8010,-9.823,1111122 
COMPS,ioos:station:USF.COMPS:FHP:1,2017-05-01T14:42:00Z,28.1530,-82.8010,-9.83,1111122 
COMPS,ioos:station:USF.COMPS:FHP:1,2017-05-01T14:48:00Z,28.1530,-82.8010,-9.833,1111122 
COMPS,ioos:station:USF.COMPS:FHP:1,2017-05-01T14:54:00Z,28.1530,-82.8010,-9.822,1111122 
COMPS,ioos:station:USF.COMPS:FHP:1,2017-05-01T15:00:00Z,28.1530,-82.8010,-9.826,1111122 
COMPS,ioos:station:USF.COMPS:FHP:1,2017-05-01T15:06:00Z,28.1530,-82.8010,-9.823,1111122 
COMPS,ioos:station:USF.COMPS:FHP:1,2017-05-01T15:12:00Z,28.1530,-82.8010,-9.828,1111122 
COMPS,ioos:station:USF.COMPS:FHP:1,2017-05-01T15:18:00Z,28.1530,-82.8010,-9.83,1111122 
COMPS,ioos:station:USF.COMPS:FHP:1,2017-05-01T15:24:00Z,28.1530,-82.8010,-9.814,1111122 
COMPS,ioos:station:USF.COMPS:FHP:1,2017-05-01T15:30:00Z,28.1530,-82.8010,-9.802,1111122 
COMPS,ioos:station:USF.COMPS:FHP:1,2017-05-01T15:36:00Z,28.1530,-82.8010,-9.797,1111122 
COMPS,ioos:station:USF.COMPS:FHP:1,2017-05-01T15:42:00Z,28.1530,-82.8010,-9.794,1111122 
COMPS,ioos:station:USF.COMPS:FHP:1,2017-05-01T15:48:00Z,28.1530,-82.8010,-9.781,1111122 
COMPS,ioos:station:USF.COMPS:FHP:1,2017-05-01T15:54:00Z,28.1530,-82.8010,-9.776,1111122 
COMPS,ioos:station:USF.COMPS:FHP:1,2017-05-01T16:00:00Z,28.1530,-82.8010,-9.755,1111122 
COMPS,ioos:station:USF.COMPS:FHP:1,2017-05-01T16:06:00Z,28.1530,-82.8010,-9.745,1111122 
COMPS,ioos:station:USF.COMPS:FHP:1,2017-05-01T16:12:00Z,28.1530,-82.8010,-9.746,1111122 
COMPS,ioos:station:USF.COMPS:FHP:1,2017-05-01T16:18:00Z,28.1530,-82.8010,-9.754,1111122 
COMPS,ioos:station:USF.COMPS:FHP:1,2017-05-01T16:24:00Z,28.1530,-82.8010,-9.751,1111122 
COMPS,ioos:station:USF.COMPS:FHP:1,2017-05-01T16:30:00Z,28.1530,-82.8010,-9.731,1111122 
COMPS,ioos:station:USF.COMPS:FHP:1,2017-05-01T16:36:00Z,28.1530,-82.8010,-9.715,1111122 
COMPS,ioos:station:USF.COMPS:FHP:1,2017-05-01T16:42:00Z,28.1530,-82.8010,-9.696,1111122 
COMPS,ioos:station:USF.COMPS:FHP:1,2017-05-01T16:48:00Z,28.1530,-82.8010,-9.698,1111122 
COMPS,ioos:station:USF.COMPS:FHP:1,2017-05-01T16:54:00Z,28.1530,-82.8010,-9.702,1111122 
COMPS,ioos:station:USF.COMPS:FHP:1,2017-05-01T17:00:00Z,28.1530,-82.8010,-9.693,1111122 
COMPS,ioos:station:USF.COMPS:FHP:1,2017-05-01T17:06:00Z,28.1530,-82.8010,-9.676,1111122 
COMPS,ioos:station:USF.COMPS:FHP:1,2017-05-01T17:12:00Z,28.1530,-82.8010,-9.66,1111122 
COMPS,ioos:station:USF.COMPS:FHP:1,2017-05-01T17:18:00Z,28.1530,-82.8010,-9.646,1111122 
COMPS,ioos:station:USF.COMPS:FHP:1,2017-05-01T17:24:00Z,28.1530,-82.8010,-9.635,1111122 
COMPS,ioos:station:USF.COMPS:FHP:1,2017-05-01T17:30:00Z,28.1530,-82.8010,-9.629,1111122 
COMPS,ioos:station:USF.COMPS:FHP:1,2017-05-01T17:36:00Z,28.1530,-82.8010,-9.617,1111122 
COMPS,ioos:station:USF.COMPS:FHP:1,2017-05-01T17:42:00Z,28.1530,-82.8010,-9.603,1111122 
COMPS,ioos:station:USF.COMPS:FHP:1,2017-05-01T17:48:00Z,28.1530,-82.8010,-9.586,1111122 
COMPS,ioos:station:USF.COMPS:FHP:1,2017-05-01T17:54:00Z,28.1530,-82.8010,-9.572,1111122 
COMPS,ioos:station:USF.COMPS:FHP:1,2017-05-01T18:00:00Z,28.1530,-82.8010,-9.561,1111122 
COMPS,ioos:station:USF.COMPS:FHP:1,2017-05-01T18:06:00Z,28.1530,-82.8010,-9.557,1111122 
COMPS,ioos:station:USF.COMPS:FHP:1,2017-05-01T18:12:00Z,28.1530,-82.8010,-9.55,1111122 
COMPS,ioos:station:USF.COMPS:FHP:1,2017-05-01T18:18:00Z,28.1530,-82.8010,-9.541,1111122 
COMPS,ioos:station:USF.COMPS:FHP:1,2017-05-01T18:24:00Z,28.1530,-82.8010,-9.528,1111122 
COMPS,ioos:station:USF.COMPS:FHP:1,2017-05-01T18:30:00Z,28.1530,-82.8010,-9.507,1111122 
COMPS,ioos:station:USF.COMPS:FHP:1,2017-05-01T18:36:00Z,28.1530,-82.8010,-9.49,1111122 
COMPS,ioos:station:USF.COMPS:FHP:1,2017-05-01T18:42:00Z,28.1530,-82.8010,-9.477,1111122 
COMPS,ioos:station:USF.COMPS:FHP:1,2017-05-01T18:48:00Z,28.1530,-82.8010,-9.461,1111122 
COMPS,ioos:station:USF.COMPS:FHP:1,2017-05-01T18:54:00Z,28.1530,-82.8010,-9.451,1111122 
COMPS,ioos:station:USF.COMPS:FHP:1,2017-05-01T19:00:00Z,28.1530,-82.8010,-9.445,1111122 
COMPS,ioos:station:USF.COMPS:FHP:1,2017-05-01T19:06:00Z,28.1530,-82.8010,-9.445,1111122 
COMPS,ioos:station:USF.COMPS:FHP:1,2017-05-01T19:12:00Z,28.1530,-82.8010,-9.438,1111122 
COMPS,ioos:station:USF.COMPS:FHP:1,2017-05-01T19:18:00Z,28.1530,-82.8010,-9.433,1111122 
COMPS,ioos:station:USF.COMPS:FHP:1,2017-05-01T19:24:00Z,28.1530,-82.8010,-9.425,1111122 
COMPS,ioos:station:USF.COMPS:FHP:1,2017-05-01T19:30:00Z,28.1530,-82.8010,-9.414,1111122 
COMPS,ioos:station:USF.COMPS:FHP:1,2017-05-01T19:36:00Z,28.1530,-82.8010,-9.41,1111122 
COMPS,ioos:station:USF.COMPS:FHP:1,2017-05-01T19:42:00Z,28.1530,-82.8010,-9.392,1111122 
COMPS,ioos:station:USF.COMPS:FHP:1,2017-05-01T19:48:00Z,28.1530,-82.8010,-9.394,1111122 
COMPS,ioos:station:USF.COMPS:FHP:1,2017-05-01T19:54:00Z,28.1530,-82.8010,-9.388,1111122 
COMPS,ioos:station:USF.COMPS:FHP:1,2017-05-01T20:00:00Z,28.1530,-82.8010,-9.396,1111122 
COMPS,ioos:station:USF.COMPS:FHP:1,2017-05-01T20:06:00Z,28.1530,-82.8010,-9.401,1111122 
COMPS,ioos:station:USF.COMPS:FHP:1,2017-05-01T20:12:00Z,28.1530,-82.8010,-9.406,1111122 
COMPS,ioos:station:USF.COMPS:FHP:1,2017-05-01T20:18:00Z,28.1530,-82.8010,-9.417,1111122 
COMPS,ioos:station:USF.COMPS:FHP:1,2017-05-01T20:24:00Z,28.1530,-82.8010,-9.424,1111122 
COMPS,ioos:station:USF.COMPS:FHP:1,2017-05-01T20:30:00Z,28.1530,-82.8010,-9.435,1111122 
COMPS,ioos:station:USF.COMPS:FHP:1,2017-05-01T20:36:00Z,28.1530,-82.8010,-9.446,1111122 
COMPS,ioos:station:USF.COMPS:FHP:1,2017-05-01T20:42:00Z,28.1530,-82.8010,-9.466,1111122 
COMPS,ioos:station:USF.COMPS:FHP:1,2017-05-01T20:48:00Z,28.1530,-82.8010,-9.479,1111122 
COMPS,ioos:station:USF.COMPS:FHP:1,2017-05-01T20:54:00Z,28.1530,-82.8010,-9.497,1111122 
COMPS,ioos:station:USF.COMPS:FHP:1,2017-05-01T21:00:00Z,28.1530,-82.8010,-9.514,1111122 
COMPS,ioos:station:USF.COMPS:FHP:1,2017-05-01T21:06:00Z,28.1530,-82.8010,-9.536,1111122 
COMPS,ioos:station:USF.COMPS:FHP:1,2017-05-01T21:12:00Z,28.1530,-82.8010,-9.553,1111122 
COMPS,ioos:station:USF.COMPS:FHP:1,2017-05-01T21:18:00Z,28.1530,-82.8010,-9.567,1111122 
COMPS,ioos:station:USF.COMPS:FHP:1,2017-05-01T21:24:00Z,28.1530,-82.8010,-9.569,1111122 
COMPS,ioos:station:USF.COMPS:FHP:1,2017-05-01T21:30:00Z,28.1530,-82.8010,-9.578,1111122 
COMPS,ioos:station:USF.COMPS:FHP:1,2017-05-01T21:36:00Z,28.1530,-82.8010,-9.575,1111122 
COMPS,ioos:station:USF.COMPS:FHP:1,2017-05-01T21:42:00Z,28.1530,-82.8010,-9.571,1111122 
COMPS,ioos:station:USF.COMPS:FHP:1,2017-05-01T21:48:00Z,28.1530,-82.8010,-9.571,1111122 
COMPS,ioos:station:USF.COMPS:FHP:1,2017-05-01T21:54:00Z,28.1530,-82.8010,-9.549,1111122 
COMPS,ioos:station:USF.COMPS:FHP:1,2017-05-01T22:00:00Z,28.1530,-82.8010,-9.549,1111122 
COMPS,ioos:station:USF.COMPS:FHP:1,2017-05-01T22:06:00Z,28.1530,-82.8010,-9.553,1111122 
COMPS,ioos:station:USF.COMPS:FHP:1,2017-05-01T22:12:00Z,28.1530,-82.8010,-9.557,1111122 
COMPS,ioos:station:USF.COMPS:FHP:1,2017-05-01T22:18:00Z,28.1530,-82.8010,-9.565,1111122 
COMPS,ioos:station:USF.COMPS:FHP:1,2017-05-01T22:24:00Z,28.1530,-82.8010,-9.588,1111122 
COMPS,ioos:station:USF.COMPS:FHP:1,2017-05-01T22:30:00Z,28.1530,-82.8010,-9.606,1111122 
COMPS,ioos:station:USF.COMPS:FHP:1,2017-05-01T22:36:00Z,28.1530,-82.8010,-9.618,1111122 
COMPS,ioos:station:USF.COMPS:FHP:1,2017-05-01T22:42:00Z,28.1530,-82.8010,-9.641,1111122 
COMPS,ioos:station:USF.COMPS:FHP:1,2017-05-01T22:48:00Z,28.1530,-82.8010,-9.648,1111122 
COMPS,ioos:station:USF.COMPS:FHP:1,2017-05-01T22:54:00Z,28.1530,-82.8010,-9.653,1111122 
COMPS,ioos:station:USF.COMPS:FHP:1,2017-05-01T23:00:00Z,28.1530,-82.8010,-9.672,1111122 
COMPS,ioos:station:USF.COMPS:FHP:1,2017-05-01T23:06:00Z,28.1530,-82.8010,-9.682,1111122 
COMPS,ioos:station:USF.COMPS:FHP:1,2017-05-01T23:12:00Z,28.1530,-82.8010,-9.693,1111122 
COMPS,ioos:station:USF.COMPS:FHP:1,2017-05-01T23:18:00Z,28.1530,-82.8010,-9.709,1111122 
COMPS,ioos:station:USF.COMPS:FHP:1,2017-05-01T23:24:00Z,28.1530,-82.8010,-9.732,1111122 
COMPS,ioos:station:USF.COMPS:FHP:1,2017-05-01T23:30:00Z,28.1530,-82.8010,-9.732,1111122 
COMPS,ioos:station:USF.COMPS:FHP:1,2017-05-01T23:36:00Z,28.1530,-82.8010,-9.728,1111122 
COMPS,ioos:station:USF.COMPS:FHP:1,2017-05-01T23:42:00Z,28.1530,-82.8010,-9.726,1111122 
COMPS,ioos:station:USF.COMPS:FHP:1,2017-05-01T23:48:00Z,28.1530,-82.8010,-9.741,1111122 
COMPS,ioos:station:USF.COMPS:FHP:1,2017-05-01T23:54:00Z,28.1530,-82.8010,-9.764,1111122 
COMPS,ioos:station:USF.COMPS:FHP:1,2017-05-02T00:00:00Z,28.1530,-82.8010,-9.791,1111122 
COMPS,ioos:station:USF.COMPS:FHP:1,2017-05-02T00:06:00Z,28.1530,-82.8010,-9.794,1111122 
COMPS,ioos:station:USF.COMPS:FHP:1,2017-05-02T00:12:00Z,28.1530,-82.8010,-9.811,1111122 
COMPS,ioos:station:USF.COMPS:FHP:1,2017-05-02T00:18:00Z,28.1530,-82.8010,-9.806,1111122 
COMPS,ioos:station:USF.COMPS:FHP:1,2017-05-02T00:24:00Z,28.1530,-82.8010,-9.829,1111122 
COMPS,ioos:station:USF.COMPS:FHP:1,2017-05-02T00:30:00Z,28.1530,-82.8010,-9.858,1111122 
COMPS,ioos:station:USF.COMPS:FHP:1,2017-05-02T00:36:00Z,28.1530,-82.8010,-9.881,1111122 
COMPS,ioos:station:USF.COMPS:FHP:1,2017-05-02T00:42:00Z,28.1530,-82.8010,-9.902,1111122 
COMPS,ioos:station:USF.COMPS:FHP:1,2017-05-02T00:48:00Z,28.1530,-82.8010,-9.909,1111122 
COMPS,ioos:station:USF.COMPS:FHP:1,2017-05-02T00:54:00Z,28.1530,-82.8010,-9.946,1111122 
COMPS,ioos:station:USF.COMPS:FHP:1,2017-05-02T01:00:00Z,28.1530,-82.8010,-9.974,1111122 
COMPS,ioos:station:USF.COMPS:FHP:1,2017-05-02T01:06:00Z,28.1530,-82.8010,-9.985,1111122 
COMPS,ioos:station:USF.COMPS:FHP:1,2017-05-02T07:06:00Z,28.1530,-82.8010,-9.993,1111122 
COMPS,ioos:station:USF.COMPS:FHP:1,2017-05-02T07:12:00Z,28.1530,-82.8010,-9.98,1111122 
COMPS,ioos:station:USF.COMPS:FHP:1,2017-05-02T07:18:00Z,28.1530,-82.8010,-9.968,1111122 
COMPS,ioos:station:USF.COMPS:FHP:1,2017-05-02T07:24:00Z,28.1530,-82.8010,-9.956,1111122 
COMPS,ioos:station:USF.COMPS:FHP:1,2017-05-02T07:30:00Z,28.1530,-82.8010,-9.944,1111122 
COMPS,ioos:station:USF.COMPS:FHP:1,2017-05-02T07:36:00Z,28.1530,-82.8010,-9.93,1111122 
COMPS,ioos:station:USF.COMPS:FHP:1,2017-05-02T07:42:00Z,28.1530,-82.8010,-9.916,1111122 
COMPS,ioos:station:USF.COMPS:FHP:1,2017-05-02T07:48:00Z,28.1530,-82.8010,-9.904,1111122 
COMPS,ioos:station:USF.COMPS:FHP:1,2017-05-02T07:54:00Z,28.1530,-82.8010,-9.894,1111122 
COMPS,ioos:station:USF.COMPS:FHP:1,2017-05-02T08:00:00Z,28.1530,-82.8010,-9.882,1111122 
COMPS,ioos:station:USF.COMPS:FHP:1,2017-05-02T08:06:00Z,28.1530,-82.8010,-9.878,1111122 
COMPS,ioos:station:USF.COMPS:FHP:1,2017-05-02T08:12:00Z,28.1530,-82.8010,-9.858,1111122 
COMPS,ioos:station:USF.COMPS:FHP:1,2017-05-02T08:18:00Z,28.1530,-82.8010,-9.849,1111122 
COMPS,ioos:station:USF.COMPS:FHP:1,2017-05-02T08:24:00Z,28.1530,-82.8010,-9.829,1111122 
COMPS,ioos:station:USF.COMPS:FHP:1,2017-05-02T08:30:00Z,28.1530,-82.8010,-9.818,1111122 
COMPS,ioos:station:USF.COMPS:FHP:1,2017-05-02T08:36:00Z,28.1530,-82.8010,-9.807,1111122 
COMPS,ioos:station:USF.COMPS:FHP:1,2017-05-02T08:42:00Z,28.1530,-82.8010,-9.801,1111122 
COMPS,ioos:station:USF.COMPS:FHP:1,2017-05-02T08:48:00Z,28.1530,-82.8010,-9.789,1111122 
COMPS,ioos:station:USF.COMPS:FHP:1,2017-05-02T08:54:00Z,28.1530,-82.8010,-9.779,1111122 
COMPS,ioos:station:USF.COMPS:FHP:1,2017-05-02T09:00:00Z,28.1530,-82.8010,-9.772,1111122 
COMPS,ioos:station:USF.COMPS:FHP:1,2017-05-02T09:06:00Z,28.1530,-82.8010,-9.765,1111122 
COMPS,ioos:station:USF.COMPS:FHP:1,2017-05-02T09:12:00Z,28.1530,-82.8010,-9.755,1111122 
COMPS,ioos:station:USF.COMPS:FHP:1,2017-05-02T09:18:00Z,28.1530,-82.8010,-9.749,1111122 
COMPS,ioos:station:USF.COMPS:FHP:1,2017-05-02T09:24:00Z,28.1530,-82.8010,-9.74,1111122 
COMPS,ioos:station:USF.COMPS:FHP:1,2017-05-02T09:30:00Z,28.1530,-82.8010,-9.727,1111122 
COMPS,ioos:station:USF.COMPS:FHP:1,2017-05-02T09:36:00Z,28.1530,-82.8010,-9.719,1111122 
COMPS,ioos:station:USF.COMPS:FHP:1,2017-05-02T09:42:00Z,28.1530,-82.8010,-9.718,1111122 
COMPS,ioos:station:USF.COMPS:FHP:1,2017-05-02T09:48:00Z,28.1530,-82.8010,-9.719,1111122 
COMPS,ioos:station:USF.COMPS:FHP:1,2017-05-02T09:54:00Z,28.1530,-82.8010,-9.715,1111122 
COMPS,ioos:station:USF.COMPS:FHP:1,2017-05-02T10:00:00Z,28.1530,-82.8010,-9.713,1111122 
COMPS,ioos:station:USF.COMPS:FHP:1,2017-05-02T10:06:00Z,28.1530,-82.8010,-9.709,1111122 
COMPS,ioos:station:USF.COMPS:FHP:1,2017-05-02T10:12:00Z,28.1530,-82.8010,-9.714,1111122 
COMPS,ioos:station:USF.COMPS:FHP:1,2017-05-02T10:18:00Z,28.1530,-82.8010,-9.708,1111122 
COMPS,ioos:station:USF.COMPS:FHP:1,2017-05-02T10:24:00Z,28.1530,-82.8010,-9.708,1111122 
COMPS,ioos:station:USF.COMPS:FHP:1,2017-05-02T10:30:00Z,28.1530,-82.8010,-9.704,1111122 
COMPS,ioos:station:USF.COMPS:FHP:1,2017-05-02T10:36:00Z,28.1530,-82.8010,-9.71,1111122 
COMPS,ioos:station:USF.COMPS:FHP:1,2017-05-02T10:42:00Z,28.1530,-82.8010,-9.71,1111122 
COMPS,ioos:station:USF.COMPS:FHP:1,2017-05-02T10:48:00Z,28.1530,-82.8010,-9.714,1111122 
COMPS,ioos:station:USF.COMPS:FHP:1,2017-05-02T10:54:00Z,28.1530,-82.8010,-9.715,1111122 
COMPS,ioos:station:USF.COMPS:FHP:1,2017-05-02T11:00:00Z,28.1530,-82.8010,-9.715,1111122 
COMPS,ioos:station:USF.COMPS:FHP:1,2017-05-02T11:06:00Z,28.1530,-82.8010,-9.715,1111122 
COMPS,ioos:station:USF.COMPS:FHP:1,2017-05-02T11:12:00Z,28.1530,-82.8010,-9.717,1111122 
COMPS,ioos:station:USF.COMPS:FHP:1,2017-05-02T11:18:00Z,28.1530,-82.8010,-9.718,1111122 
COMPS,ioos:station:USF.COMPS:FHP:1,2017-05-02T11:24:00Z,28.1530,-82.8010,-9.714,1111122 
COMPS,ioos:station:USF.COMPS:FHP:1,2017-05-02T11:30:00Z,28.1530,-82.8010,-9.721,1111122 
COMPS,ioos:station:USF.COMPS:FHP:1,2017-05-02T11:36:00Z,28.1530,-82.8010,-9.715,1111122 
COMPS,ioos:station:USF.COMPS:FHP:1,2017-05-02T11:42:00Z,28.1530,-82.8010,-9.718,1111122 
COMPS,ioos:station:USF.COMPS:FHP:1,2017-05-02T11:48:00Z,28.1530,-82.8010,-9.719,1111122 
COMPS,ioos:station:USF.COMPS:FHP:1,2017-05-02T11:54:00Z,28.1530,-82.8010,-9.731,1111122 
COMPS,ioos:station:USF.COMPS:FHP:1,2017-05-02T12:00:00Z,28.1530,-82.8010,-9.733,1111122 
COMPS,ioos:station:USF.COMPS:FHP:1,2017-05-02T12:06:00Z,28.1530,-82.8010,-9.746,1111122 
COMPS,ioos:station:USF.COMPS:FHP:1,2017-05-02T12:12:00Z,28.1530,-82.8010,-9.747,1111122 
COMPS,ioos:station:USF.COMPS:FHP:1,2017-05-02T12:18:00Z,28.1530,-82.8010,-9.759,1111122 
COMPS,ioos:station:USF.COMPS:FHP:1,2017-05-02T12:24:00Z,28.1530,-82.8010,-9.763,1111122 
COMPS,ioos:station:USF.COMPS:FHP:1,2017-05-02T12:30:00Z,28.1530,-82.8010,-9.769,1111122 
COMPS,ioos:station:USF.COMPS:FHP:1,2017-05-02T12:36:00Z,28.1530,-82.8010,-9.771,1111122 
COMPS,ioos:station:USF.COMPS:FHP:1,2017-05-02T12:42:00Z,28.1530,-82.8010,-9.785,1111122 
COMPS,ioos:station:USF.COMPS:FHP:1,2017-05-02T12:48:00Z,28.1530,-82.8010,-9.787,1111122 
COMPS,ioos:station:USF.COMPS:FHP:1,2017-05-02T12:54:00Z,28.1530,-82.8010,-9.796,1111122 
COMPS,ioos:station:USF.COMPS:FHP:1,2017-05-02T13:00:00Z,28.1530,-82.8010,-9.793,1111122 
COMPS,ioos:station:USF.COMPS:FHP:1,2017-05-02T13:06:00Z,28.1530,-82.8010,-9.794,1111122 
COMPS,ioos:station:USF.COMPS:FHP:1,2017-05-02T13:12:00Z,28.1530,-82.8010,-9.795,1111122 
COMPS,ioos:station:USF.COMPS:FHP:1,2017-05-02T13:18:00Z,28.1530,-82.8010,-9.807,1111122 
COMPS,ioos:station:USF.COMPS:FHP:1,2017-05-02T13:24:00Z,28.1530,-82.8010,-9.812,1111122 
COMPS,ioos:station:USF.COMPS:FHP:1,2017-05-02T13:30:00Z,28.1530,-82.8010,-9.818,1111122 
COMPS,ioos:station:USF.COMPS:FHP:1,2017-05-02T13:36:00Z,28.1530,-82.8010,-9.824,1111122 
COMPS,ioos:station:USF.COMPS:FHP:1,2017-05-02T13:42:00Z,28.1530,-82.8010,-9.827,1111122 
COMPS,ioos:station:USF.COMPS:FHP:1,2017-05-02T13:48:00Z,28.1530,-82.8010,-9.829,1111122 
COMPS,ioos:station:USF.COMPS:FHP:1,2017-05-02T13:54:00Z,28.1530,-82.8010,-9.828,1111122 
COMPS,ioos:station:USF.COMPS:FHP:1,2017-05-02T14:00:00Z,28.1530,-82.8010,-9.848,1111122 
COMPS,ioos:station:USF.COMPS:FHP:1,2017-05-02T14:06:00Z,28.1530,-82.8010,-9.853,1111122 
COMPS,ioos:station:USF.COMPS:FHP:1,2017-05-02T14:12:00Z,28.1530,-82.8010,-9.852,1111122 
COMPS,ioos:station:USF.COMPS:FHP:1,2017-05-02T14:18:00Z,28.1530,-82.8010,-9.85,1111122 
COMPS,ioos:station:USF.COMPS:FHP:1,2017-05-02T14:24:00Z,28.1530,-82.8010,-9.855,1111122 
COMPS,ioos:station:USF.COMPS:FHP:1,2017-05-02T14:30:00Z,28.1530,-82.8010,-9.858,1111122 
COMPS,ioos:station:USF.COMPS:FHP:1,2017-05-02T14:36:00Z,28.1530,-82.8010,-9.857,1111122 
COMPS,ioos:station:USF.COMPS:FHP:1,2017-05-02T14:42:00Z,28.1530,-82.8010,-9.856,1111122 
COMPS,ioos:station:USF.COMPS:FHP:1,2017-05-02T14:48:00Z,28.1530,-82.8010,-9.845,1111122 